DEETE EDLW-EDLP

Flight info

Callsign DEETE
Flight time 0h 22m
Altitude 50
Route DCT EDLP NO REALTIME WEATHER UTC 1000
Aircraft C172/L-SKYGRY/SU2

Departure

Time 2026-05-08 22:05
Airport Dortmund Airport (EDLW)

Arrival

Time 2026-05-08 22:28
Airport Paderborn Lippstadt Airport (EDLP)
Time Latitude Longitude Altitude Speed Heading
2026-05-08 21:54 51.51237 7.60514 457 ft 0 kts 188°
2026-05-08 21:58 51.51236 7.60514 457 ft 1 kts 188°
2026-05-08 21:59 51.51209 7.60458 459 ft 11 kts 261°
2026-05-08 21:59 51.51204 7.60328 452 ft 20 kts 248°
2026-05-08 21:59 51.51157 7.60216 456 ft 10 kts 246°
2026-05-08 21:59 51.51196 7.60170 449 ft 15 kts 37°
2026-05-08 22:00 51.51238 7.60280 441 ft 15 kts 59°
2026-05-08 22:00 51.51309 7.60482 437 ft 27 kts 58°
2026-05-08 22:00 51.51367 7.60635 431 ft 7 kts 63°
2026-05-08 22:00 51.51414 7.60782 433 ft 23 kts 62°
2026-05-08 22:01 51.51494 7.61003 427 ft 17 kts 60°
2026-05-08 22:01 51.51560 7.61046 425 ft 13 kts 324°
2026-05-08 22:01 51.51562 7.60916 420 ft 12 kts 254°
2026-05-08 22:01 51.51539 7.60787 417 ft 13 kts 255°
2026-05-08 22:02 51.51526 7.60696 414 ft 0 kts 274°
2026-05-08 22:03 51.51527 7.60687 416 ft 4 kts 274°
2026-05-08 22:03 51.51568 7.60608 415 ft 13 kts 336°
2026-05-08 22:03 51.51611 7.60604 416 ft 8 kts 54°
2026-05-08 22:04 51.51706 7.60859 417 ft 53 kts 60°
2026-05-08 22:04 51.51965 7.61594 409 ft 95 kts 60°
2026-05-08 22:04 51.52313 7.62598 563 ft 103 kts 63°
2026-05-08 22:04 51.52575 7.63669 792 ft 102 kts 83°
2026-05-08 22:05 51.52395 7.64748 1001 ft 104 kts 116°
2026-05-08 22:05 51.52061 7.65805 1131 ft 112 kts 118°
2026-05-08 22:05 51.51635 7.66931 1205 ft 118 kts 126°
2026-05-08 22:05 51.51153 7.67972 1361 ft 116 kts 130°
2026-05-08 22:06 51.50519 7.68829 1426 ft 120 kts 150°
2026-05-08 22:06 51.49807 7.69460 1608 ft 115 kts 153°
2026-05-08 22:06 51.49065 7.70075 1614 ft 124 kts 154°
2026-05-08 22:06 51.48284 7.70719 1614 ft 128 kts 154°
2026-05-08 22:07 51.47489 7.71375 1612 ft 129 kts 154°
2026-05-08 22:07 51.46693 7.72030 1613 ft 129 kts 154°
2026-05-08 22:07 51.45894 7.72691 1613 ft 129 kts 154°
2026-05-08 22:07 51.45097 7.73349 1612 ft 129 kts 154°
2026-05-08 22:08 51.44296 7.74009 1613 ft 129 kts 153°
2026-05-08 22:08 51.43773 7.75124 1595 ft 131 kts 97°
2026-05-08 22:08 51.43988 7.76518 1604 ft 130 kts 68°
2026-05-08 22:08 51.44308 7.77832 1718 ft 123 kts 68°
2026-05-08 22:09 51.44599 7.79006 1849 ft 114 kts 68°
2026-05-08 22:09 51.44845 7.80005 1941 ft 92 kts 68°
2026-05-08 22:09 51.45052 7.80852 2003 ft 79 kts 69°
2026-05-08 22:09 51.45264 7.81708 2171 ft 86 kts 69°
2026-05-08 22:10 51.45493 7.82639 2344 ft 94 kts 69°
2026-05-08 22:10 51.45742 7.83645 2511 ft 100 kts 68°
2026-05-08 22:10 51.46005 7.84712 2674 ft 106 kts 68°
2026-05-08 22:10 51.46281 7.85828 2830 ft 109 kts 68°
2026-05-08 22:11 51.46562 7.86968 2983 ft 110 kts 68°
2026-05-08 22:11 51.46846 7.88121 3138 ft 112 kts 68°
2026-05-08 22:11 51.47135 7.89289 3288 ft 113 kts 68°
2026-05-08 22:11 51.47423 7.90456 3437 ft 113 kts 68°
2026-05-08 22:12 51.47711 7.91621 3585 ft 112 kts 68°
2026-05-08 22:12 51.47998 7.92777 3734 ft 112 kts 68°
2026-05-08 22:12 51.48276 7.93906 3881 ft 111 kts 68°
2026-05-08 22:12 51.48567 7.95083 4032 ft 111 kts 68°
2026-05-08 22:13 51.48853 7.96237 4183 ft 111 kts 68°
2026-05-08 22:13 51.49136 7.97386 4332 ft 111 kts 68°
2026-05-08 22:13 51.49420 7.98537 4482 ft 111 kts 68°
2026-05-08 22:13 51.49703 7.99685 4624 ft 110 kts 68°
2026-05-08 22:14 51.49983 8.00827 4781 ft 110 kts 68°
2026-05-08 22:14 51.50270 8.01993 4842 ft 117 kts 68°
2026-05-08 22:14 51.50579 8.03249 4854 ft 124 kts 68°
2026-05-08 22:14 51.50895 8.04530 4847 ft 121 kts 68°
2026-05-08 22:15 51.51195 8.05751 4841 ft 117 kts 68°
2026-05-08 22:15 51.51495 8.06975 4836 ft 116 kts 68°
2026-05-08 22:15 51.51789 8.08169 4837 ft 115 kts 69°
2026-05-08 22:15 51.52080 8.09355 4837 ft 114 kts 68°
2026-05-08 22:16 51.52369 8.10533 4836 ft 113 kts 68°
2026-05-08 22:16 51.52657 8.11708 4837 ft 113 kts 68°
2026-05-08 22:16 51.52946 8.12886 4836 ft 113 kts 68°
2026-05-08 22:16 51.53233 8.14061 4836 ft 113 kts 68°
2026-05-08 22:17 51.53522 8.15239 4837 ft 113 kts 68°
2026-05-08 22:17 51.53807 8.16403 4837 ft 114 kts 68°
2026-05-08 22:17 51.54096 8.17584 4837 ft 113 kts 68°
2026-05-08 22:17 51.54384 8.18762 4836 ft 113 kts 68°
2026-05-08 22:18 51.54672 8.19941 4835 ft 113 kts 68°
2026-05-08 22:18 51.54960 8.21115 4835 ft 113 kts 69°
2026-05-08 22:18 51.55246 8.22286 4839 ft 113 kts 69°
2026-05-08 22:18 51.55535 8.23463 4839 ft 113 kts 69°
2026-05-08 22:19 51.55824 8.24642 4838 ft 113 kts 68°
2026-05-08 22:19 51.56111 8.25820 4838 ft 113 kts 68°
2026-05-08 22:19 51.56388 8.26960 4831 ft 103 kts 68°
2026-05-08 22:19 51.56630 8.27960 4831 ft 90 kts 68°
2026-05-08 22:20 51.56845 8.28848 4827 ft 80 kts 68°
2026-05-08 22:20 51.57035 8.29633 4811 ft 72 kts 68°
2026-05-08 22:20 51.57238 8.30480 4649 ft 84 kts 69°
2026-05-08 22:20 51.57419 8.31494 4312 ft 110 kts 78°
2026-05-08 22:21 51.57599 8.32768 3936 ft 123 kts 77°
2026-05-08 22:21 51.57836 8.34067 3704 ft 117 kts 68°
2026-05-08 22:21 51.58130 8.35442 3167 ft 127 kts 72°
2026-05-08 22:21 51.58398 8.36812 2813 ft 129 kts 72°
2026-05-08 22:22 51.58646 8.38201 2499 ft 125 kts 75°
2026-05-08 22:22 51.58796 8.39476 2535 ft 94 kts 85°
2026-05-08 22:22 51.58852 8.40762 1830 ft 150 kts 86°
2026-05-08 22:22 51.58911 8.42332 1837 ft 135 kts 88°
2026-05-08 22:23 51.58930 8.43735 1741 ft 117 kts 89°
2026-05-08 22:23 51.58955 8.45032 1593 ft 111 kts 89°
2026-05-08 22:23 51.59061 8.46168 1566 ft 100 kts 79°
2026-05-08 22:23 51.59178 8.47186 1589 ft 88 kts 81°
2026-05-08 22:24 51.59260 8.48163 1549 ft 85 kts 84°
2026-05-08 22:24 51.59315 8.49206 1372 ft 98 kts 86°
2026-05-08 22:24 51.59318 8.50230 1360 ft 93 kts 95°
2026-05-08 22:24 51.59258 8.51260 1316 ft 90 kts 91°
2026-05-08 22:25 51.59357 8.52271 1250 ft 89 kts 78°
2026-05-08 22:25 51.59497 8.53188 1291 ft 75 kts 75°
2026-05-08 22:25 51.59642 8.54061 1206 ft 82 kts 70°
2026-05-08 22:25 51.59832 8.54909 1171 ft 81 kts 70°
2026-05-08 22:26 51.60014 8.55860 1201 ft 94 kts 76°
2026-05-08 22:26 51.60141 8.56881 1135 ft 93 kts 81°
2026-05-08 22:26 51.60244 8.57872 1058 ft 83 kts 81°
2026-05-08 22:26 51.60371 8.58708 915 ft 73 kts 73°
2026-05-08 22:27 51.60520 8.59400 821 ft 61 kts 67°
2026-05-08 22:27 51.60755 8.60031 819 ft 66 kts 57°
2026-05-08 22:27 51.61025 8.60693 733 ft 74 kts 57°
2026-05-08 22:27 51.61288 8.61341 700 ft 63 kts 57°
2026-05-08 22:28 51.61439 8.61784 703 ft 27 kts 90°
2026-05-08 22:28 51.61437 8.61886 706 ft 0 kts 91°
2026-05-08 22:28 51.61433 8.61961 707 ft 15 kts 106°
2026-05-08 22:29 51.61417 8.62127 712 ft 21 kts 63°
2026-05-08 22:29 51.61387 8.62270 724 ft 12 kts 150°
2026-05-08 22:29 51.61323 8.62245 724 ft 8 kts 181°